Regional Weather Roundup
Issued by NWS

Home | Current Version | Previous Version | Graphics & Text | Print | Product List | Glossary On
Versions: 1 2 3 4 5 6 7 8 9 10 11 12 13 14 15 16 17 18 19 20 21 22 23 24 25 26 27 28 29 30 31 32 33 34 35 36 37 38 39 40 41 42 43 44 45 46 47 48 49 50
000
ASUS43 KBIS 280202
RWRND

NORTH DAKOTA REGIONAL WEATHER ROUNDUP
NATIONAL WEATHER SERVICE BISMARCK ND
900 PM CDT WED MAY 27 2015

NOTE: "FAIR" INDICATES FEW OR NO CLOUDS BELOW 12,000 FEET WITH NO
SIGNIFICANT WEATHER AND/OR OBSTRUCTIONS TO VISIBILITY.


NDZ001>003-009>011-017-280300-
NORTHWEST NORTH DAKOTA

CITY           SKY/WX    TMP DP  RH WIND       PRES   REMARKS
WILLISTON      CLOUDY    63  53  70 SE5       29.89F
MINOT          CLOUDY    65  52  62 NE8       29.91S
MINOT AFB      CLOUDY    65  55  71 E10       29.89F
$$

NDZ018>021-031>035-040>046-280300-
SOUTHWEST NORTH DAKOTA

CITY           SKY/WX    TMP DP  RH WIND       PRES   REMARKS
BISMARCK       CLOUDY    72  54  53 S7        29.93R
DICKINSON      CLOUDY    57  55  93 E10       29.91R
GARRISON         N/A     60  57  89 NW13      29.94S
HETTINGER ARPT CLOUDY    58  55  90 E9        29.93F
$$

NDZ004>008-012>016-024-026-027-054-280300-
NORTHEAST NORTH DAKOTA

CITY           SKY/WX    TMP DP  RH WIND       PRES   REMARKS
GRAND FORKS    CLOUDY    67  51  56 NE7       29.96R
GRND FRKS AFB  CLOUDY    67  50  54 NE7       29.97R
DEVILS LAKE    CLOUDY    68  52  56 E9        29.94F
$$

NDZ022-023-025-028>030-036>039-047>053-280300-
SOUTHEAST NORTH DAKOTA

CITY           SKY/WX    TMP DP  RH WIND       PRES   REMARKS
FARGO          MOCLDY    71  55  56 NE6       29.96R
JAMESTOWN      MOCLDY    67  54  63 E18G25    29.95R
$$




USA.gov is the U.S. government's official web portal to all federal, state and local government web resources and services.